Hourly Weather Barnukovka

Today, 19 April, Monday

Time Temperature Precipitation Wind Pressure Humidity
00:00 +10°C° 0 mm 4 mps 752 mmHg 57%
01:00 +9°C° 0 mm 5 mps 752 mmHg 59%
02:00 +8°C° 0 mm 5 mps 752 mmHg 62%
03:00 +8°C° 0 mm 6 mps 752 mmHg 65%
04:00 +7°C° 0 mm 6 mps 752 mmHg 68%
05:00 +7°C° 0 mm 6 mps 752 mmHg 71%
06:00 +7°C° 0 mm 6 mps 753 mmHg 74%
07:00 +7°C° 0 mm 6 mps 753 mmHg 71%
08:00 +8°C° 0 mm 7 mps 753 mmHg 67%
09:00 +9°C° 0 mm 7 mps 753 mmHg 63%
10:00 +9°C° 0 mm 7 mps 753 mmHg 61%
11:00 +10°C° 0 mm 8 mps 753 mmHg 58%
12:00 +11°C° 0 mm 8 mps 753 mmHg 55%
13:00 +10°C° 0 mm 8 mps 753 mmHg 60%
14:00 +10°C° 0 mm 7 mps 753 mmHg 65%
15:00 +9°C° 0 mm 7 mps 753 mmHg 69%
16:00 +8°C° 0.1 mm 7 mps 753 mmHg 75%
17:00 +6°C° 0.1 mm 7 mps 753 mmHg 80%
18:00 +5°C° 0.1 mm 7 mps 753 mmHg 85%
19:00 +5°C° 0.2 mm 8 mps 754 mmHg 87%
20:00 +4°C° 0.2 mm 8 mps 754 mmHg 88%
21:00 +2°C° 0.2 mm 8 mps 754 mmHg 89%
22:00 +2°C° 0.2 mm 8 mps 754 mmHg 89%
23:00 +1°C° 0.2 mm 8 mps 754 mmHg 90%

Tomorrow, 20 April, Tuesday

Time Temperature Precipitation Wind Pressure Humidity
00:00 +1°C° 0.2 mm 8 mps 755 mmHg 91%
01:00 +1°C° 0.1 mm 8 mps 755 mmHg 89%
02:00 +1°C° 0.1 mm 8 mps 755 mmHg 88%
03:00 +2°C° 0.1 mm 7 mps 755 mmHg 87%
04:00 +1°C° 0.4 mm 8 mps 755 mmHg 84%
05:00 0°C° 0.4 mm 8 mps 755 mmHg 81%
06:00 0°C° 0.4 mm 8 mps 756 mmHg 78%
07:00 0°C° 0 mm 8 mps 756 mmHg 77%
08:00 0°C° 0 mm 8 mps 756 mmHg 76%
09:00 0°C° 0 mm 8 mps 757 mmHg 75%
10:00 0°C° 0 mm 8 mps 757 mmHg 74%
11:00 0°C° 0 mm 8 mps 757 mmHg 73%
12:00 0°C° 0 mm 8 mps 757 mmHg 73%
13:00 +1°C° 0 mm 8 mps 756 mmHg 71%
14:00 +2°C° 0 mm 8 mps 756 mmHg 70%
15:00 +4°C° 0 mm 7 mps 756 mmHg 69%
16:00 +4°C° 0 mm 8 mps 755 mmHg 68%
17:00 +5°C° 0 mm 8 mps 755 mmHg 68%
18:00 +6°C° 0 mm 8 mps 754 mmHg 67%
19:00 +5°C° 0 mm 9 mps 754 mmHg 67%
20:00 +5°C° 0 mm 9 mps 754 mmHg 66%
21:00 +5°C° 0 mm 9 mps 754 mmHg 66%
22:00 +5°C° 0.2 mm 10 mps 753 mmHg 68%
23:00 +3°C° 0.2 mm 10 mps 753 mmHg 70%

Day after tomorrow, 21 April, Wednesday

Time Temperature Precipitation Wind Pressure Humidity
00:00 +2°C° 0.2 mm 10 mps 753 mmHg 73%
01:00 +2°C° 1.7 mm 10 mps 753 mmHg 78%
02:00 +1°C° 1.7 mm 10 mps 753 mmHg 83%
03:00 +1°C° 1.7 mm 10 mps 753 mmHg 89%
04:00 +1°C° 1.2 mm 10 mps 752 mmHg 90%
05:00 0°C° 1.2 mm 10 mps 752 mmHg 91%
06:00 0°C° 1.2 mm 10 mps 752 mmHg 93%
07:00 0°C° 0.7 mm 9 mps 752 mmHg 93%
08:00 0°C° 0.7 mm 9 mps 752 mmHg 93%
09:00 0°C° 0.7 mm 8 mps 753 mmHg 93%
10:00 0°C° 0.8 mm 8 mps 753 mmHg 93%
11:00 0°C° 0.8 mm 8 mps 753 mmHg 94%
12:00 0°C° 0.8 mm 8 mps 753 mmHg 94%
13:00 0°C° 0.3 mm 7 mps 753 mmHg 94%
14:00 0°C° 0.3 mm 7 mps 753 mmHg 95%
15:00 0°C° 0.3 mm 7 mps 753 mmHg 95%
16:00 +1°C° 0 mm 6 mps 754 mmHg 95%
17:00 +2°C° 0 mm 6 mps 754 mmHg 95%
18:00 +2°C° 0 mm 5 mps 754 mmHg 96%
19:00 +2°C° 0.1 mm 5 mps 754 mmHg 96%
20:00 +3°C° 0.1 mm 4 mps 755 mmHg 96%
21:00 +3°C° 0.1 mm 4 mps 755 mmHg 97%
22:00 +3°C° 0 mm 3 mps 755 mmHg 97%
23:00 +3°C° 0 mm 3 mps 755 mmHg 97%

22 April, Thursday

Time Temperature Precipitation Wind Pressure Humidity
00:00 +4°C° 0 mm 2 mps 755 mmHg 97%
01:00 +4°C° 0 mm 2 mps 755 mmHg 98%
02:00 +4°C° 0 mm 2 mps 755 mmHg 98%
03:00 +3°C° 0 mm 3 mps 755 mmHg 98%
04:00 +3°C° 0 mm 3 mps 755 mmHg 98%
05:00 +4°C° 0 mm 3 mps 755 mmHg 98%
06:00 +4°C° 0 mm 3 mps 755 mmHg 98%
07:00 +4°C° 0 mm 3 mps 755 mmHg 98%
08:00 +5°C° 0 mm 3 mps 756 mmHg 98%
09:00 +6°C° 0 mm 2 mps 756 mmHg 98%
10:00 +7°C° 0 mm 3 mps 756 mmHg 95%
11:00 +8°C° 0 mm 3 mps 756 mmHg 93%
12:00 +9°C° 0 mm 3 mps 756 mmHg 91%
13:00 +10°C° 0 mm 3 mps 756 mmHg 84%
14:00 +12°C° 0 mm 3 mps 756 mmHg 77%
15:00 +13°C° 0 mm 3 mps 756 mmHg 70%
16:00 +13°C° 0.2 mm 3 mps 756 mmHg 71%
17:00 +12°C° 0.2 mm 3 mps 757 mmHg 73%
18:00 +12°C° 0.2 mm 3 mps 757 mmHg 74%
19:00 +12°C° 0.1 mm 2 mps 757 mmHg 78%
20:00 +10°C° 0.1 mm 2 mps 757 mmHg 82%
21:00 +9°C° 0.1 mm 2 mps 758 mmHg 86%
22:00 +8°C° 0 mm 2 mps 758 mmHg 89%
23:00 +8°C° 0 mm 2 mps 758 mmHg 91%

23 April, Friday

Time Temperature Precipitation Wind Pressure Humidity
00:00 +7°C° 0 mm 2 mps 758 mmHg 94%
01:00 +7°C° 0 mm 2 mps 758 mmHg 95%
02:00 +7°C° 0 mm 2 mps 758 mmHg 95%
03:00 +6°C° 0 mm 2 mps 758 mmHg 96%
04:00 +6°C° 0 mm 2 mps 758 mmHg 95%
05:00 +6°C° 0 mm 2 mps 759 mmHg 95%
06:00 +7°C° 0 mm 2 mps 759 mmHg 94%
07:00 +8°C° 0 mm 2 mps 759 mmHg 89%
08:00 +9°C° 0 mm 2 mps 759 mmHg 84%
09:00 +10°C° 0 mm 3 mps 759 mmHg 79%
10:00 +11°C° 0 mm 3 mps 758 mmHg 74%
11:00 +12°C° 0 mm 3 mps 758 mmHg 69%
12:00 +14°C° 0 mm 4 mps 758 mmHg 64%
13:00 +14°C° 0 mm 3 mps 758 mmHg 60%
14:00 +16°C° 0 mm 3 mps 757 mmHg 57%
15:00 +16°C° 0 mm 3 mps 757 mmHg 53%
16:00 +14°C° 0 mm 3 mps 757 mmHg 58%
17:00 +13°C° 0 mm 3 mps 757 mmHg 63%
18:00 +13°C° 0 mm 3 mps 756 mmHg 68%
19:00 +11°C° 0 mm 3 mps 756 mmHg 74%
20:00 +10°C° 0 mm 2 mps 756 mmHg 80%
21:00 +9°C° 0 mm 2 mps 756 mmHg 86%
22:00 +8°C° 0 mm 2 mps 756 mmHg 86%
23:00 +9°C° 0 mm 1 mps 755 mmHg 87%

24 April, Saturday

Time Temperature Precipitation Wind Pressure Humidity
00:00 +8°C° 0 mm 1 mps 755 mmHg 88%
01:00 +8°C° 0 mm 1 mps 755 mmHg 88%
02:00 +8°C° 0 mm 1 mps 755 mmHg 89%
03:00 +8°C° 0 mm 1 mps 754 mmHg 89%
04:00 +8°C° 0 mm 1 mps 754 mmHg 88%
05:00 +8°C° 0 mm 1 mps 754 mmHg 87%
06:00 +8°C° 0 mm 1 mps 754 mmHg 86%
07:00 +10°C° 0 mm 1 mps 753 mmHg 80%
08:00 +10°C° 0 mm 2 mps 753 mmHg 74%
09:00 +12°C° 0 mm 2 mps 753 mmHg 68%
10:00 +13°C° 0 mm 2 mps 752 mmHg 63%
11:00 +14°C° 0 mm 1 mps 752 mmHg 59%
12:00 +15°C° 0 mm 1 mps 752 mmHg 54%
13:00 +15°C° 0 mm 1 mps 751 mmHg 53%
14:00 +15°C° 0 mm 2 mps 751 mmHg 52%
15:00 +16°C° 0 mm 2 mps 751 mmHg 51%
16:00 +14°C° 0 mm 3 mps 751 mmHg 57%
17:00 +13°C° 0 mm 3 mps 751 mmHg 63%
18:00 +13°C° 0 mm 3 mps 750 mmHg 69%
19:00 +11°C° 0 mm 3 mps 750 mmHg 73%
20:00 +10°C° 0 mm 3 mps 750 mmHg 77%
21:00 +9°C° 0 mm 3 mps 750 mmHg 81%
22:00 +9°C° 0 mm 3 mps 750 mmHg 82%
23:00 +9°C° 0 mm 3 mps 750 mmHg 82%
Show more